Weather History for KFXY - January, 2013

Change the Weather History Date:

Thursday, January 17, 2013

  Actual Average (KMCW) Record (KMCW)
Temperature  
Mean Temperature 19 °F 16 °F  
Max Temperature 30 °F 25 °F 49 °F (1996)
Min Temperature 8 °F 7 °F -24 °F (1930)
Degree Days  
Heating Degree Days 46 49  
Month to date heating degree days 833  
Since 1 July heating degree days 3922  
Cooling Degree Days 0 0  
Month to date cooling degree days 0  
Year to date cooling degree days 0  
Moisture  
Dew Point 9 °F    
Average Humidity 68    
Maximum Humidity 80    
Minimum Humidity 46    
Precipitation  
Precipitation 0.00 in 0.02 in 0.50 in (1932)
Month to date precipitation 0.44  
Year to date precipitation 0.44  
Snow  
Snow 0.00 in 0.30 in 10.00 in (1932)
Month to date snowfall 5.6  
Since 1 July snowfall 19.6  
Snow Depth -    
Sea Level Pressure  
Sea Level Pressure 30.33 in    
Wind  
Wind Speed 9 mph (WNW)    
Max Wind Speed 14 mph    
Max Gust Speed 17 mph    
Visibility 10 miles    
Events      
T = Trace of Precipitation, MM = Missing Value Source: NWS Daily Summary

Daily Weather History Graph

Daily Weather History Graph

Search for Another Location

Airport or City:

Trip Planner

Search our weather history database for the weather conditions in past years. The results will help you decide how hot, cold, wet, or windy it might be!

Date:

Astronomy

Jan. 17, 2013 Rise Set
Actual Time 7:42 AM CST 5:07 PM CST
Civil Twilight 7:11 AM CST 5:38 PM CST
Nautical Twilight 6:35 AM CST 6:13 PM CST
Astronomical Twilight 6:01 AM CST 6:47 PM CST
Moon 10:37 AM CST (1/17) No Moon Set
Length of Visible Light 10h 27m
Length of Day
9h 25m
Waxing Crescent, 38% of the Moon is Illuminated
Jan 17
Waxing Crescent
Jan 18
First Quarter
Jan 26
Full
Feb 3
Last Quarter
Feb 10
New

Hourly Weather History & Observations

Time (CST) Temp. Windchill Dew Point Humidity Pressure Visibility Wind Dir Wind Speed Gust Speed Precip Events Conditions
12:35 AM 15.8 °F 2.1 °F 10.4 °F 79% 30.22 in 10.0 mi NNW 12.7 mph - N/A   Clear
12:55 AM 14.0 °F 0.5 °F 8.6 °F 79% 30.23 in 10.0 mi NW 11.5 mph - N/A   Clear
1:15 AM 14.0 °F -0.2 °F 8.6 °F 79% 30.24 in 10.0 mi NW 12.7 mph - N/A   Clear
1:35 AM 14.0 °F 0.5 °F 5.0 °F 67% 30.26 in 10.0 mi NW 11.5 mph - N/A   Clear
1:55 AM 12.2 °F -1.0 °F 6.8 °F 79% 30.26 in 10.0 mi NW 10.4 mph 17.3 mph N/A   Clear
2:15 AM 12.2 °F -2.5 °F 5.0 °F 73% 30.27 in 10.0 mi NNW 12.7 mph - N/A   Clear
2:35 AM 12.2 °F -3.1 °F 3.2 °F 67% 30.27 in 10.0 mi NNW 13.8 mph - N/A   Clear
2:55 AM 10.4 °F -4.8 °F 3.2 °F 73% 30.28 in 10.0 mi NNW 12.7 mph - N/A   Clear
3:35 AM 10.4 °F -4.1 °F 3.2 °F 73% 30.29 in 10.0 mi NNW 11.5 mph - N/A   Clear
3:55 AM 10.4 °F -1.5 °F 1.4 °F 67% 30.29 in 10.0 mi NNW 8.1 mph - N/A   Clear
4:15 AM 10.4 °F -0.4 °F 3.2 °F 73% 30.30 in 10.0 mi NW 6.9 mph - N/A   Clear
4:35 AM 10.4 °F -0.4 °F 1.4 °F 67% 30.30 in 10.0 mi NW 6.9 mph - N/A   Clear
4:55 AM 8.6 °F -5.5 °F 1.4 °F 73% 30.31 in 10.0 mi NW 10.4 mph - N/A   Clear
5:15 AM 8.6 °F -3.7 °F 1.4 °F 73% 30.32 in 10.0 mi NW 8.1 mph - N/A   Clear
5:35 AM 8.6 °F -3.7 °F 1.4 °F 73% 30.33 in 10.0 mi NW 8.1 mph - N/A   Clear
5:55 AM 8.6 °F -3.7 °F 1.4 °F 73% 30.33 in 10.0 mi NW 8.1 mph - N/A   Clear
6:15 AM 8.6 °F -2.6 °F -0.4 °F 67% 30.33 in 10.0 mi NW 6.9 mph - N/A   Clear
6:35 AM 8.6 °F -4.7 °F -0.4 °F 67% 30.33 in 10.0 mi WNW 9.2 mph - N/A   Clear
6:55 AM 8.6 °F -2.6 °F -0.4 °F 67% 30.33 in 10.0 mi WNW 6.9 mph - N/A   Clear
7:15 AM 8.6 °F 2.0 °F -0.4 °F 67% 30.35 in 10.0 mi West 3.5 mph - N/A   Scattered Clouds
7:35 AM 8.6 °F -2.6 °F -0.4 °F 67% 30.36 in 10.0 mi WNW 6.9 mph - N/A   Overcast
7:55 AM 8.6 °F -2.6 °F 1.4 °F 73% 30.38 in 10.0 mi WNW 6.9 mph - N/A   Overcast
8:15 AM 10.4 °F -1.5 °F 1.4 °F 67% 30.38 in 10.0 mi WNW 8.1 mph - N/A   Overcast
8:35 AM 10.4 °F 0.8 °F 1.4 °F 67% 30.38 in 10.0 mi WNW 5.8 mph - N/A   Overcast
8:55 AM 10.4 °F 0.8 °F 1.4 °F 67% 30.38 in 10.0 mi West 5.8 mph - N/A   Overcast
9:15 AM 10.4 °F 4.0 °F 1.4 °F 67% 30.38 in 10.0 mi WNW 3.5 mph - N/A   Overcast
9:35 AM 12.2 °F - -0.4 °F 57% 30.37 in 10.0 mi Calm Calm - N/A   Overcast
9:55 AM 14.0 °F 5.1 °F 3.2 °F 62% 30.37 in 10.0 mi SW 5.8 mph - N/A   Overcast
10:15 AM 14.0 °F 6.5 °F 3.2 °F 62% 30.39 in 10.0 mi West 4.6 mph - N/A   Overcast
10:35 AM 15.8 °F 8.6 °F 3.2 °F 58% 30.40 in 10.0 mi West 4.6 mph - N/A   Overcast
10:55 AM 17.6 °F 9.3 °F 3.2 °F 53% 30.39 in 10.0 mi West 5.8 mph - N/A   Overcast
11:15 AM 17.6 °F 10.7 °F 3.2 °F 53% 30.37 in 10.0 mi West 4.6 mph - N/A   Overcast
11:35 AM 21.2 °F 14.9 °F 3.2 °F 46% 30.36 in 10.0 mi SW 4.6 mph - N/A   Scattered Clouds
11:55 AM 23.0 °F 13.9 °F 5.0 °F 46% 30.36 in 10.0 mi SW 8.1 mph - N/A   Scattered Clouds
12:15 PM 24.8 °F 16.9 °F 8.6 °F 50% 30.35 in 10.0 mi West 6.9 mph - N/A   Mostly Cloudy
12:35 PM 26.6 °F 20.0 °F 10.4 °F 51% 30.35 in 10.0 mi West 5.8 mph - N/A   Scattered Clouds
12:55 PM 26.6 °F 17.5 °F 12.2 °F 55% 30.35 in 10.0 mi West 9.2 mph 17.3 mph N/A   Mostly Cloudy
1:15 PM 26.6 °F 16.2 °F 14.0 °F 59% 30.35 in 10.0 mi WNW 11.5 mph - N/A   Overcast
1:35 PM 28.4 °F 18.5 °F 14.0 °F 55% 30.35 in 10.0 mi West 11.5 mph - N/A   Overcast
1:55 PM 28.4 °F 18.0 °F 17.6 °F 64% 30.35 in 10.0 mi WNW 12.7 mph - N/A   Overcast
2:15 PM 28.4 °F 18.5 °F 17.6 °F 64% 30.34 in 10.0 mi NW 11.5 mph - N/A   Overcast
2:35 PM 28.4 °F 19.1 °F 19.4 °F 69% 30.33 in 10.0 mi NW 10.4 mph - N/A   Scattered Clouds
2:55 PM 28.4 °F 20.4 °F 19.4 °F 69% 30.33 in 10.0 mi WNW 8.1 mph - N/A   Clear
3:15 PM 28.4 °F 19.1 °F 19.4 °F 69% 30.34 in 10.0 mi WNW 10.4 mph 16.1 mph N/A   Mostly Cloudy
3:35 PM 30.2 °F 21.9 °F 19.4 °F 64% 30.34 in 10.0 mi NNW 9.2 mph - N/A   Scattered Clouds
3:55 PM 30.2 °F 21.9 °F 19.4 °F 64% 30.35 in 10.0 mi NW 9.2 mph - N/A   Scattered Clouds
4:55 PM 28.4 °F 21.2 °F 19.4 °F 69% 30.35 in 10.0 mi NW 6.9 mph - N/A   Mostly Cloudy
5:35 PM 26.6 °F 22.6 °F 19.4 °F 74% 30.36 in 10.0 mi NW 3.5 mph - N/A   Overcast
7:15 PM 26.6 °F - 19.4 °F 74% 30.36 in 10.0 mi Calm Calm - N/A   Overcast
7:55 PM 26.6 °F - 19.4 °F 74% 30.35 in 10.0 mi Calm Calm - N/A   Overcast
8:15 PM 26.6 °F 21.2 °F 19.4 °F 74% 30.36 in 10.0 mi NNW 4.6 mph - N/A   Overcast
8:55 PM 26.6 °F 21.2 °F 19.4 °F 74% 30.33 in 10.0 mi NNE 4.6 mph - N/A   Overcast
9:15 PM 26.6 °F - 19.4 °F 74% 30.33 in 10.0 mi Calm Calm - N/A   Overcast
9:35 PM 26.6 °F - 19.4 °F 74% 30.32 in 10.0 mi Calm Calm - N/A   Overcast
9:55 PM 26.6 °F - 19.4 °F 74% 30.32 in 10.0 mi Calm Calm - N/A   Overcast
11:15 PM 24.8 °F 19.1 °F 19.4 °F 80% 30.29 in 10.0 mi ESE 4.6 mph - N/A   Mostly Cloudy
11:35 PM 24.8 °F 17.9 °F 19.4 °F 80% 30.28 in 10.0 mi SE 5.8 mph - N/A   Scattered Clouds
11:55 PM 24.8 °F 16.1 °F 19.4 °F 80% 30.27 in 10.0 mi SE 8.1 mph - N/A   Clear